Location: Weatherford
(35.5260°N, 98.7070°W)
Time: 22:50:02
(UTC-05:00)

Amateur Radio Satellites - All Passes

Search period start: 16 April 2014 22:20
Search period end: 17 April 2014 22:20
Location: Weatherford, 35.5260°N, 98.7070°W

Satellite Date Start Highest point End Downlink Frequencies (MHz)
Time Altitude Azimuth
MaSat-1 16 Apr 22:35:03 22:38:07 40° 112° (ESE) 22:40:46 437.345 MHz
Saudisat 1A 16 Apr 22:41:06 22:44:55 29° 248° (WSW) 22:48:40 436.775 MHz
HO-68 16 Apr 22:43:50 22:50:33 45° 260° (W) 22:57:20 435.675 MHz FM
FUNcube-1 16 Apr 23:06:24 23:10:30 49° 74° (ENE) 23:14:34 145.950 - 145.970 MHz USB
Oscar 11 16 Apr 23:25:41 23:29:19 26° 264° (W) 23:32:58 145.825 FM, Beacon 2401.500 USB
ISS 16 Apr 23:40:12 23:43:18 33° 36° (NE) 23:46:23 145.800 FM
SO-50 17 Apr 00:43:24 00:44:53 11° 44° (NE) 00:46:21 436.795 FM
FUNcube-1 17 Apr 00:46:03 00:47:10 11° 268° (W) 00:48:16 145.950 - 145.970 MHz USB
Sapphire 17 Apr 00:51:59 00:55:40 19° 105° (ESE) 00:59:22 437.095 MHz 1200 baud AX-25 AFSK
ISS 17 Apr 01:17:21 01:19:53 20° 231° (SW) 01:22:25 145.800 FM
PCSat 17 Apr 01:35:17 01:40:31 54° 112° (ESE) 01:45:47 145.825 MHz
SO-50 17 Apr 02:21:24 02:26:04 90° 292° (WNW) 02:30:48 436.795 FM
KITSAT 1 17 Apr 02:30:23 02:35:03 17° 101° (E) 02:39:43 435.175 FM
Sapphire 17 Apr 02:33:25 02:38:39 49° 300° (WNW) 02:43:55 437.095 MHz 1200 baud AX-25 AFSK
AO-27 17 Apr 02:39:45 02:43:14 18° 94° (E) 02:46:42 436.795 MHz FM
Oscar 10/S400 17 Apr 02:48:26 03:05:24 31° 135° (SE) 03:43:31 145.825 - 145.975 CW/USB, Beacon 145.810 USB
ITAMSAT 1 17 Apr 02:50:44 02:54:47 23° 95° (E) 02:58:50 435.822 SSB
Oscar 19 17 Apr 03:01:06 03:06:15 60° 101° (E) 03:11:22 437.125 CW, 437.150 USB
Oscar 16 17 Apr 03:08:50 03:14:03 78° 103° (ESE) 03:19:14 437.025 USB, Beacon 2401.1428
PCSat 17 Apr 03:20:19 03:24:15 20° 309° (NW) 03:28:12 145.825 MHz
UOSAT-12 17 Apr 03:20:50 03:24:29 22° 50° (NE) 03:28:05 437.025 FM, 437.400 FM
OPAL 17 Apr 03:25:08 03:30:08 85° 74° (ENE) 03:35:13 ?
AO-Echo 17 Apr 03:25:30 03:30:00 39° 98° (E) 03:34:23 ?
Uribyol 2 17 Apr 03:39:00 03:44:11 77° 103° (ESE) 03:49:22 436.500 FM
Gurwin Techsat 1B 17 Apr 03:55:07 03:59:46 30° 97° (E) 04:04:22 435.225 FM
AO-27 17 Apr 04:18:01 04:22:56 46° 288° (WNW) 04:27:50 436.795 MHz FM
KITSAT 1 17 Apr 04:21:16 04:29:24 85° 297° (WNW) 04:37:34 435.175 FM
ITAMSAT 1 17 Apr 04:29:38 04:34:19 36° 290° (WNW) 04:39:00 435.822 SSB
Oscar 19 17 Apr 04:42:10 04:45:03 15° 296° (WNW) 04:47:55 437.125 CW, 437.150 USB
TMSAT-1 17 Apr 04:44:37 04:49:53 66° 102° (ESE) 04:55:08 436.925 FM
JAS-1B 17 Apr 04:50:23 04:55:23 31° 98° (E) 05:00:34 435.800 - 435.900 CW/SSB
Oscar 16 17 Apr 04:50:57 04:52:41 12° 298° (WNW) 04:54:26 437.025 USB, Beacon 2401.1428
UOSAT-12 17 Apr 05:00:21 05:04:46 40° 246° (WSW) 05:09:08 437.025 FM, 437.400 FM
AO-7 17 Apr 05:02:43 05:09:28 27° 96° (E) 05:16:12 29.400 - 29.500 MHz
AO-Echo 17 Apr 05:05:12 05:08:26 18° 294° (WNW) 05:11:37 ?
Uosat F 17 Apr 05:19:50 05:24:42 51° 100° (E) 05:29:32 435.120 FM
Uribyol 2 17 Apr 05:21:15 05:22:58 12° 298° (WNW) 05:24:41 436.500 FM
Gurwin Techsat 1B 17 Apr 05:35:06 05:39:36 29° 291° (WNW) 05:44:06 435.225 FM
STRAND 1 17 Apr 06:02:58 06:04:16 11° 62° (ENE) 06:05:33 ?
RS-15 17 Apr 06:19:10 06:26:58 22° 102° (ESE) 06:34:32 29.354 - 29.394 USB, Beacon 29.352 USB
KITSAT 1 17 Apr 06:20:23 06:25:59 20° 318° (NW) 06:31:37 435.175 FM
TMSAT-1 17 Apr 06:26:35 06:29:12 14° 297° (WNW) 06:31:49 436.925 FM
Hamsat 17 Apr 06:38:51 06:40:17 11° 92° (E) 06:41:43 145.90 MHz
JAS-1B 17 Apr 06:41:17 06:46:00 28° 293° (WNW) 06:50:49 435.800 - 435.900 CW/SSB
AO-7 17 Apr 06:54:29 07:02:35 59° 292° (WNW) 07:10:41 29.400 - 29.500 MHz
Uosat F 17 Apr 07:00:00 07:03:02 16° 295° (WNW) 07:06:04 435.120 FM
JAS-2 17 Apr 07:36:59 07:40:43 18° 95° (E) 07:44:39 435.800 - 435.900 CW/SSB, 435.910 FM
STRAND 1 17 Apr 07:37:36 07:42:44 80° 257° (WSW) 07:47:52 ?
AO-40 17 Apr 07:47:45 09:44:18 18° 120° (ESE) 10:50:33 Beacon 2401.320
SO-67 17 Apr 08:10:54 08:13:39 21° 96° (E) 08:16:23 435.3500 MHz FM
Hamsat 17 Apr 08:12:17 08:16:31 51° 285° (WNW) 08:20:44 145.90 MHz
RS-15 17 Apr 08:26:32 08:37:59 84° 299° (WNW) 08:49:03 29.354 - 29.394 USB, Beacon 29.352 USB
MaSat-1 17 Apr 08:38:59 08:42:00 72° 67° (ENE) 08:45:37 437.345 MHz
AO-7 17 Apr 08:51:50 08:53:37 11° 311° (NW) 08:55:25 29.400 - 29.500 MHz
JAS-2 17 Apr 09:20:49 09:25:57 48° 287° (WNW) 09:31:34 435.800 - 435.900 CW/SSB, 435.910 FM
SO-67 17 Apr 09:44:18 09:46:38 17° 289° (WNW) 09:48:57 435.3500 MHz FM
PANSAT 17 Apr 10:02:08 10:04:27 15° 163° (SSE) 10:06:46 not established
HO-68 17 Apr 10:14:28 10:21:13 42° 100° (E) 10:27:56 435.675 MHz FM
PCSat 17 Apr 10:26:45 10:31:07 24° 53° (NE) 10:35:27 145.825 MHz
RS-15 17 Apr 10:43:33 10:52:08 25° 324° (NW) 11:00:37 29.354 - 29.394 USB, Beacon 29.352 USB
FUNcube-1 17 Apr 11:00:32 11:02:12 12° 93° (E) 11:03:52 145.950 - 145.970 MHz USB
Saudisat 1A 17 Apr 11:07:39 11:09:30 12° 108° (ESE) 11:11:21 436.775 MHz
Oscar 11 17 Apr 11:15:32 11:19:53 68° 101° (E) 11:24:12 145.825 FM, Beacon 2401.500 USB
Sapphire 17 Apr 11:24:12 11:29:37 69° 62° (ENE) 11:34:59 437.095 MHz 1200 baud AX-25 AFSK
PANSAT 17 Apr 11:40:51 11:44:09 27° 175° (S) 11:47:27 not established
HO-68 17 Apr 12:02:27 12:08:41 33° 295° (WNW) 12:14:55 435.675 MHz FM
PCSat 17 Apr 12:09:35 12:14:41 43° 250° (WSW) 12:19:45 145.825 MHz
KITSAT 1 17 Apr 12:18:31 12:25:24 29° 49° (NE) 12:32:13 435.175 FM
FUNcube-1 17 Apr 12:34:44 12:38:49 47° 286° (WNW) 12:42:58 145.950 - 145.970 MHz USB
Saudisat 1A 17 Apr 12:44:13 12:48:36 56° 302° (WNW) 12:53:00 436.775 MHz
RS-15 17 Apr 13:07:04 13:10:34 12° 0° (N) 13:14:03 29.354 - 29.394 USB, Beacon 29.352 USB
Sapphire 17 Apr 13:09:59 13:12:22 13° 257° (WSW) 13:14:45 437.095 MHz 1200 baud AX-25 AFSK
PANSAT 17 Apr 13:20:44 13:23:57 25° 188° (S) 13:27:09 not established
AO-27 17 Apr 13:55:10 13:59:01 22° 66° (ENE) 14:02:52 436.795 MHz FM
ITAMSAT 1 17 Apr 14:05:59 14:10:15 27° 68° (ENE) 14:14:32 435.822 SSB
KITSAT 1 17 Apr 14:13:19 14:21:16 62° 248° (WSW) 14:29:08 435.175 FM
Oscar 19 17 Apr 14:15:00 14:20:03 63° 74° (ENE) 14:25:09 437.125 CW, 437.150 USB
Oscar 16 17 Apr 14:22:48 14:27:55 82° 76° (ENE) 14:33:05 437.025 USB, Beacon 2401.1428
AO-Echo 17 Apr 14:35:02 14:39:56 41° 72° (ENE) 14:44:46 ?
Uribyol 2 17 Apr 14:53:55 14:59:05 85° 76° (ENE) 15:04:16 436.500 FM
PANSAT 17 Apr 15:01:52 15:03:37 13° 200° (SSW) 15:05:21 not established
Gurwin Techsat 1B 17 Apr 15:13:18 15:18:06 36° 70° (ENE) 15:22:54 435.225 FM
RS-15 17 Apr 15:20:24 15:28:56 25° 37° (NE) 15:37:31 29.354 - 29.394 USB, Beacon 29.352 USB
JAS-1B 17 Apr 15:31:45 15:38:25 28° 67° (ENE) 15:44:14 435.800 - 435.900 CW/SSB
AO-27 17 Apr 15:33:22 15:38:14 40° 261° (W) 15:43:07 436.795 MHz FM
OPAL 17 Apr 15:38:27 15:42:58 29° 99° (E) 15:47:28 ?
ITAMSAT 1 17 Apr 15:45:00 15:49:35 32° 263° (W) 15:54:12 435.822 SSB
Oscar 19 17 Apr 15:57:39 15:59:47 13° 269° (W) 16:01:56 437.125 CW, 437.150 USB
AO-7 17 Apr 15:58:53 16:05:42 30° 60° (ENE) 16:12:31 29.400 - 29.500 MHz
TMSAT-1 17 Apr 16:02:22 16:07:38 77° 75° (ENE) 16:12:56 436.925 FM
AO-Echo 17 Apr 16:14:51 16:18:46 21° 265° (W) 16:22:40 ?
ISS 17 Apr 16:20:31 16:23:47 56° 135° (SE) 16:27:05 145.800 FM
Uosat F 17 Apr 16:30:08 16:34:59 51° 73° (ENE) 16:39:52 435.120 FM
SO-50 17 Apr 16:33:41 16:38:05 60° 117° (ESE) 16:42:31 436.795 FM
Gurwin Techsat 1B 17 Apr 16:53:51 16:58:05 24° 265° (W) 17:02:21 435.225 FM
OPAL 17 Apr 17:17:15 17:21:44 30° 293° (WNW) 17:26:13 ?
JAS-1B 17 Apr 17:20:20 17:28:43 54° 258° (WSW) 17:35:47 435.800 - 435.900 CW/SSB
RS-15 17 Apr 17:32:00 17:43:01 85° 61° (ENE) 17:54:22 29.354 - 29.394 USB, Beacon 29.352 USB
UOSAT-12 17 Apr 17:32:23 17:33:20 11° 106° (ESE) 17:34:18 437.025 FM, 437.400 FM
TMSAT-1 17 Apr 17:47:05 17:48:03 11° 270° (W) 17:49:02 436.925 FM
AO-7 17 Apr 17:49:54 17:57:59 57° 257° (WSW) 18:06:07 29.400 - 29.500 MHz
ISS 17 Apr 17:58:29 18:00:47 17° 331° (NNW) 18:03:04 145.800 FM
Uosat F 17 Apr 18:11:10 18:14:02 15° 267° (W) 18:16:54 435.120 FM
SO-50 17 Apr 18:16:31 18:19:02 15° 314° (NW) 18:21:33 436.795 FM
Hamsat 17 Apr 19:02:35 19:06:45 76° 77° (ENE) 19:10:58 145.90 MHz
UOSAT-12 17 Apr 19:08:21 19:12:51 66° 301° (WNW) 19:17:28 437.025 FM, 437.400 FM
JAS-2 17 Apr 19:29:51 19:35:39 48° 73° (ENE) 19:40:53 435.800 - 435.900 CW/SSB, 435.910 FM
RS-15 17 Apr 19:46:39 19:53:59 21° 259° (WSW) 20:01:31 29.354 - 29.394 USB, Beacon 29.352 USB
STRAND 1 17 Apr 19:51:30 19:56:21 44° 99° (E) 20:01:11 ?
SO-67 17 Apr 20:13:54 20:17:23 83° 259° (WSW) 20:20:54 435.3500 MHz FM
HO-68 17 Apr 20:41:03 20:46:27 24° 61° (ENE) 20:51:52 435.675 MHz FM
Saudisat 1A 17 Apr 21:13:57 21:18:13 47° 57° (ENE) 21:22:25 436.775 MHz
JAS-2 17 Apr 21:16:36 21:20:51 20° 264° (W) 21:24:50 435.800 - 435.900 CW/SSB, 435.910 FM
STRAND 1 17 Apr 21:31:39 21:35:11 19° 294° (WNW) 21:38:43 ?
Oscar 11 17 Apr 22:07:54 22:11:48 35° 72° (ENE) 22:15:45 145.825 FM, Beacon 2401.500 USB
